VIREON-1

导读

VIREON-1(NORAD编号68434)是一颗低轨小型卫星,隶属于对地观测任务范畴,搭载可见光与红外探测载荷,主要用于全球环境监测、地表变化观测及气候相关研究,可实现对植被覆盖、地表温度等参数的高精度探测。该卫星通过高分辨率多光谱成像提升观测精度,践行开放数据共享原则,为全球生态研究、灾害响应提供空间数据支撑,目前在预设轨道稳定运行,服务于国际环境科学合作研究。

基本信息
目录编号:
68434
目录名称:
VIREON-1
国际标识:
2026-067U
轨道中心:
EARTH
卫星名称:
VIREON-1
卫星全名:
VIREON-1
卫星状态:
在轨 (已飞行158 天)
发射日期:
2026-03-30 UTC
国别 :
英国 (GB)
星等 :
--
轨道信息
数据来源 国际轨道数据
星历时间: 2026-09-03T15:48:01+0800
1天前
查看轨道信息
半长轴: 6886.887km
偏心率: 0.000336
轨道倾角: 97.466°
近地点辐角 75.738°
升交点赤经 203.882°
平近点角 284.423°
近地点: 506.436km
远地点: 511.064km
周期: 94.797分钟
每日圈数: 15.19037
详细信息
使用方式:
暂无
2D轨道图
3D轨道图
轨道高度分析图
轨道倾角分析图
轨道综合分析图
查看轨道综合分析图
交会数据列表
事件ID 空间交会对象 最接近时刻(TCA) 交会距离 交会风险概率(CRP) 交会风险指数(CRI) 操作
CDM_260906-030006-843406-883121
VIREON-1 (68434)
HJS-9A (68831)
2026-09-06T
03:00:00+0000
1.508 km
极远距离
6.578321E-6 低风险 0.51
CDM_260905-034206-836906-843421
VIREON-1 (68434)
2026-09-05T
03:42:41+0000
1.428 km
极远距离
5.957684E-6 低风险 0.51
CDM_260906-202406-343106-843421
HJS-6D (63431)
VIREON-1 (68434)
2026-09-06T
20:24:21+0000
1.922 km
极远距离
3.17085E-6 低风险 0.45
CDM_260906-224206-329106-843421
OBJECT A (63291)
VIREON-1 (68434)
2026-09-06T
22:42:23+0000
2.872 km
极远距离
1.430442E-6 低风险 0.38
CDM_260906-155506-387906-843421
VIREON-1 (68434)
2026-09-06T
15:55:45+0000
2.660 km
极远距离
1.190933E-6 低风险 0.37